FW3902 Weather Reports


time (UTC)temp
F
wind
direction
speed
knots
gust
knots
rain 1hr
in
rain 24hr
in
rain mn
in
humidity
%
barometer
mb
20260906121503 58 82 0.0 1.7 0.00 0.00 0.00 89 1021.3
20260906121024 58 82 0.0 0.9 0.00 0.00 0.00 89 1021.3
20260906120503 57 82 0.0 0.9 0.00 0.00 0.00 88 1021.3
20260906120003 57 82 0.0 0.9 0.00 0.00 0.00 88 1021.1
20260906115503 57 82 0.0 0.9 0.00 0.00 0.00 88 1021.0
20260906115024 57 0 0.0 0.0 0.00 0.00 0.00 88 1021.0
20260906114503 57 0 0.0 0.0 0.00 0.00 0.00 88 1020.9
20260906114003 57 0 0.0 0.0 0.00 0.00 0.00 88 1020.8
20260906113503 57 0 0.0 0.0 0.00 0.00 0.00 88 1020.8
20260906113003 57 0 0.0 0.0 0.00 0.00 0.00 88 1020.8
20260906112503 57 0 0.0 0.0 0.00 0.00 0.00 87 1020.9
20260906112024 57 0 0.0 0.0 0.00 0.00 0.00 87 1020.8
20260906111524 57 0 0.0 0.0 0.00 0.00 0.00 87 1020.7
20260906111003 57 0 0.0 0.0 0.00 0.00 0.00 87 1020.6
20260906110503 58 0 0.0 0.0 0.00 0.00 0.00 87 1020.6
20260906110003 58 0 0.0 0.0 0.00 0.00 0.00 87 1020.6
20260906105503 57 0 0.0 0.0 0.00 0.00 0.00 87 1020.6
20260906105003 58 0 0.0 0.0 0.00 0.00 0.00 87 1020.6
20260906104524 57 0 0.0 0.0 0.00 0.00 0.00 87 1020.6
20260906104003 58 0 0.0 0.0 0.00 0.00 0.00 87 1020.5
20260906103503 57 0 0.0 0.0 0.00 0.00 0.00 86 1020.5
20260906103003 57 0 0.0 0.0 0.00 0.00 0.00 86 1020.8
20260906102503 57 0 0.0 0.0 0.00 0.00 0.00 86 1020.8
20260906102003 57 0 0.0 0.0 0.00 0.00 0.00 86 1020.7
20260906101503 57 0 0.0 0.0 0.00 0.00 0.00 85 1020.6
20260906101003 58 0 0.0 0.0 0.00 0.00 0.00 85 1020.6
20260906100524 58 0 0.0 0.0 0.00 0.00 0.00 85 1020.6
20260906100003 58 0 0.0 0.0 0.00 0.00 0.00 84 1020.4
20260906095524 58 0 0.0 0.0 0.00 0.00 0.00 84 1020.3
20260906095024 58 0 0.0 0.0 0.00 0.00 0.00 84 1020.5
20260906094503 58 0 0.0 0.0 0.00 0.00 0.00 84 1020.5
20260906094003 58 0 0.0 0.0 0.00 0.00 0.00 84 1020.5
20260906093503 58 0 0.0 0.0 0.00 0.00 0.00 84 1020.5
20260906093024 58 0 0.0 0.0 0.00 0.00 0.00 84 1020.4
20260906092503 59 0 0.0 0.0 0.00 0.00 0.00 84 1020.4
20260906092003 59 0 0.0 0.0 0.00 0.00 0.00 83 1020.5
20260906091503 59 0 0.0 0.0 0.00 0.00 0.00 83 1020.5
20260906091003 59 0 0.0 0.0 0.00 0.00 0.00 83 1020.5
20260906090503 59 0 0.0 0.0 0.00 0.00 0.00 83 1020.5
20260906090003 59 0 0.0 0.0 0.00 0.00 0.00 83 1020.3
20260906085503 60 0 0.0 0.0 0.00 0.00 0.00 83 1020.2
20260906085003 60 0 0.0 0.0 0.00 0.00 0.00 83 1020.1
20260906084503 60 0 0.0 0.0 0.00 0.00 0.00 83 1019.9
20260906084003 60 0 0.0 0.0 0.00 0.00 0.00 82 1020.0
20260906083503 60 0 0.0 0.0 0.00 0.00 0.00 82 1019.9
20260906083003 60 0 0.0 0.0 0.00 0.00 0.00 82 1019.9
20260906082524 60 0 0.0 0.0 0.00 0.00 0.00 82 1019.8
20260906082003 60 0 0.0 0.0 0.00 0.00 0.00 82 1019.7
20260906081503 60 0 0.0 0.0 0.00 0.00 0.00 82 1019.7
20260906081003 60 0 0.0 0.0 0.00 0.00 0.00 82 1019.6
20260906080524 61 0 0.0 0.0 0.00 0.00 0.00 82 1019.7
20260906080024 61 0 0.0 0.0 0.00 0.00 0.00 82 1019.5
20260906075503 61 0 0.0 0.0 0.00 0.00 0.00 81 1019.6
20260906075003 61 82 0.0 1.7 0.00 0.00 0.00 81 1019.6
20260906074503 61 82 0.0 1.7 0.00 0.00 0.00 81 1019.5
20260906074003 61 79 0.0 0.9 0.00 0.00 0.00 81 1019.6
20260906073503 61 0 0.0 0.0 0.00 0.00 0.00 81 1019.5
20260906073024 62 0 0.0 0.0 0.00 0.00 0.00 80 1019.5
20260906072503 62 0 0.0 0.0 0.00 0.00 0.00 80 1019.5
20260906072003 62 0 0.0 0.0 0.00 0.00 0.00 80 1019.5
20260906071503 62 0 0.0 0.0 0.00 0.00 0.00 79 1019.5
20260906071003 62 0 0.0 0.0 0.00 0.00 0.00 79 1019.6
20260906070524 62 0 0.0 0.0 0.00 0.00 0.00 79 1019.6
20260906070003 62 0 0.0 0.0 0.00 0.00 0.00 79 1019.4
20260906065503 62 0 0.0 0.0 0.00 0.00 0.00 79 1019.5
20260906065024 62 79 0.0 0.9 0.00 0.00 0.00 78 1019.6
20260906064503 63 79 0.0 0.9 0.00 0.00 0.00 78 1019.5
20260906064003 63 79 0.0 0.9 0.00 0.00 0.00 78 1019.5
20260906063503 63 73 0.0 0.9 0.00 0.00 0.00 78 1019.6
20260906063003 63 0 0.0 0.0 0.00 0.00 0.00 77 1019.6
20260906062503 63 74 0.0 0.9 0.00 0.00 0.00 77 1019.6
20260906062003 63 74 0.0 0.9 0.00 0.00 0.00 77 1019.6
20260906061503 64 73 0.0 0.9 0.00 0.00 0.00 76 1019.7
20260906061024 64 0 0.0 0.0 0.00 0.00 0.00 76 1019.6
20260906060503 64 0 0.0 0.0 0.00 0.00 0.00 76 1019.6
20260906060003 64 55 0.0 1.7 0.00 0.00 0.00 76 1019.5
20260906055524 64 97 0.0 1.7 0.00 0.00 0.00 76 1019.5
20260906055003 64 109 0.0 1.7 0.00 0.00 0.00 76 1019.5
20260906054503 64 94 0.0 1.7 0.00 0.00 0.00 76 1019.5
20260906054003 64 87 0.0 0.9 0.00 0.00 0.00 75 1019.5
20260906053503 64 89 0.0 0.9 0.00 0.00 0.00 76 1019.5
20260906053003 65 90 0.0 5.2 0.00 0.00 0.00 75 1019.4
20260906052503 65 89 0.0 5.2 0.00 0.00 0.00 75 1019.3
20260906052003 65 87 0.0 1.7 0.00 0.00 0.00 75 1019.3
20260906051503 65 88 0.0 1.7 0.00 0.00 0.00 75 1019.2
20260906051003 66 89 0.0 0.9 0.00 0.00 0.00 75 1019.3
20260906050503 66 87 0.0 1.7 0.00 0.00 0.00 75 1019.2
20260906050003 66 3 0.0 2.6 0.00 0.00 0.00 75 1019.2
20260906045503 66 352 0.0 2.6 0.00 0.00 0.00 74 1019.2
20260906045003 66 109 0.0 1.7 0.00 0.00 0.00 74 1019.1
20260906044524 66 89 0.9 5.2 0.00 0.00 0.00 74 1019.1
20260906044003 66 80 0.9 5.2 0.00 0.00 0.00 75 1019.0
20260906043503 67 90 0.9 6.1 0.00 0.00 0.00 74 1018.9
20260906043003 67 99 0.9 6.1 0.00 0.00 0.00 75 1018.7
20260906042503 67 95 0.0 1.7 0.00 0.00 0.00 75 1018.6
20260906042003 67 115 0.0 4.3 0.00 0.00 0.00 74 1018.6
20260906041503 67 100 0.9 4.3 0.00 0.00 0.00 74 1018.5
20260906041003 67 114 0.9 5.2 0.00 0.00 0.00 74 1018.5
20260906040503 68 111 0.9 5.2 0.00 0.00 0.00 73 1018.6
20260906040003 68 95 0.9 3.5 0.00 0.00 0.00 74 1018.6
20260906035524 68 117 0.9 6.1 0.00 0.00 0.00 74 1018.5
20260906035003 68 107 0.9 6.1 0.00 0.00 0.00 74 1018.4
20260906034503 68 93 0.9 5.2 0.00 0.00 0.00 74 1018.4
20260906034003 68 98 0.9 5.2 0.00 0.00 0.00 74 1018.4
20260906033503 68 113 0.9 3.5 0.00 0.00 0.00 74 1018.3
20260906033024 68 125 0.9 2.6 0.00 0.00 0.00 74 1018.3
20260906032503 68 108 0.0 1.7 0.00 0.00 0.00 74 1018.4
20260906032003 68 105 0.9 5.2 0.00 0.00 0.00 74 1018.4
20260906031503 69 110 0.9 5.2 0.00 0.00 0.00 74 1018.4
20260906031024 69 104 0.9 5.2 0.00 0.00 0.00 74 1018.4
20260906030503 69 65 0.9 1.7 0.00 0.00 0.00 74 1018.4
20260906030003 69 42 0.0 1.7 0.00 0.00 0.00 74 1018.4
20260906025503 69 31 0.0 1.7 0.00 0.00 0.00 73 1018.3
20260906025003 69 90 0.0 0.9 0.00 0.00 0.00 73 1018.2
20260906024503 70 0 0.0 0.0 0.00 0.00 0.00 73 1018.2
20260906024003 70 0 0.0 0.0 0.00 0.00 0.00 73 1018.2
20260906023524 70 0 0.0 0.0 0.00 0.00 0.00 72 1018.1
20260906023003 70 0 0.0 0.0 0.00 0.00 0.00 72 1018.1
20260906022503 70 0 0.0 0.0 0.00 0.00 0.00 72 1018.0
20260906022003 71 0 0.0 0.0 0.00 0.00 0.00 72 1018.1
20260906021503 71 96 0.0 0.9 0.00 0.00 0.00 71 1018.0
20260906021024 71 96 0.0 1.7 0.00 0.00 0.00 71 1017.9
20260906020524 71 97 0.0 1.7 0.00 0.00 0.00 71 1017.9
20260906020024 72 99 0.0 2.6 0.00 0.00 0.00 71 1017.8
20260906015524 72 111 0.0 2.6 0.00 0.00 0.00 71 1017.9
20260906015004 72 121 0.0 2.6 0.00 0.00 0.00 70 1017.8
20260906014503 73 0 0.0 0.0 0.00 0.00 0.00 70 1017.7
20260906014003 73 88 0.0 0.9 0.00 0.00 0.00 70 1017.8
20260906013503 73 96 0.0 5.2 0.00 0.00 0.00 70 1017.6
20260906013003 73 98 0.0 5.2 0.00 0.00 0.00 70 1017.5
20260906012503 73 97 0.0 2.6 0.00 0.00 0.00 70 1017.4
20260906012003 74 0 0.0 0.0 0.00 0.00 0.00 71 1017.4
20260906011503 74 0 0.0 0.0 0.00 0.00 0.00 71 1017.3
20260906011003 74 76 0.0 0.9 0.00 0.00 0.00 72 1017.3
20260906010503 74 83 0.9 1.7 0.00 0.00 0.00 72 1017.2
20260906010003 74 84 0.9 3.5 0.00 0.00 0.00 72 1017.1
20260906005524 74 55 0.9 3.5 0.00 0.00 0.00 72 1017.1
20260906005024 74 47 0.0 2.6 0.00 0.00 0.00 73 1017.1
20260906004524 74 84 0.0 2.6 0.00 0.00 0.00 73 1017.1
20260906004003 75 52 0.0 1.7 0.00 0.00 0.00 73 1017.0
20260906003524 75 53 0.0 1.7 0.00 0.00 0.00 73 1017.0
20260906003024 75 53 0.0 0.9 0.00 0.00 0.00 73 1017.1
20260906002503 75 0 0.0 0.0 0.00 0.00 0.00 73 1017.1
20260906002003 75 0 0.0 0.0 0.00 0.00 0.00 73 1017.1
20260906001524 76 0 0.0 0.0 0.00 0.00 0.00 72 1017.1
20260906001003 76 0 0.0 0.0 0.00 0.00 0.00 71 1017.1
20260906000524 76 0 0.0 0.0 0.00 0.00 0.00 71 1017.0
20260906000003 76 57 0.0 0.9 0.00 0.00 0.00 70 1017.0
20260905235503 76 57 0.0 0.9 0.00 0.00 0.00 70 1017.0
20260905235003 77 58 0.0 0.9 0.00 0.00 0.00 69 1017.0
20260905234503 77 58 0.0 1.7 0.00 0.00 0.00 69 1017.0
20260905234024 77 58 0.0 1.7 0.00 0.00 0.00 69 1017.0
20260905233524 78 67 0.0 1.7 0.00 0.00 0.00 69 1017.0
20260905233024 78 53 0.0 2.6 0.00 0.00 0.00 68 1017.0
20260905232503 78 41 0.9 2.6 0.00 0.00 0.00 67 1016.9
20260905232003 79 42 0.9 3.5 0.00 0.00 0.00 67 1016.9
20260905231503 80 45 0.9 3.5 0.00 0.00 0.00 67 1016.9
20260905231024 80 55 0.0 1.7 0.00 0.00 0.00 67 1017.0
20260905230524 80 56 0.0 1.7 0.00 0.00 0.00 66 1016.9
20260905230003 80 0 0.0 0.0 0.00 0.00 0.00 66 1017.0
20260905225503 80 0 0.0 0.0 0.00 0.00 0.00 67 1016.9
20260905225003 80 0 0.0 0.0 0.00 0.00 0.00 65 1016.8
20260905224503 80 0 0.0 0.0 0.00 0.00 0.00 65 1017.0
20260905224003 80 103 0.0 1.7 0.00 0.00 0.00 66 1017.0
20260905223524 80 92 0.9 2.6 0.00 0.00 0.00 65 1016.9
20260905223024 80 56 0.9 3.5 0.00 0.00 0.00 65 1016.9
20260905222503 80 30 0.9 4.3 0.00 0.00 0.00 66 1016.9
20260905222003 80 35 0.9 4.3 0.00 0.00 0.00 66 1016.8
20260905221503 80 47 0.9 2.6 0.00 0.00 0.00 66 1016.7
20260905221003 80 44 0.9 5.2 0.00 0.00 0.00 66 1016.6
20260905220503 79 41 0.9 5.2 0.00 0.00 0.00 66 1016.5
20260905220003 79 67 0.9 3.5 0.00 0.00 0.00 67 1016.5
20260905215524 79 102 0.9 3.5 0.00 0.00 0.00 68 1016.3
20260905215003 79 80 0.9 4.3 0.00 0.00 0.00 68 1016.2
20260905214503 79 77 0.9 4.3 0.00 0.00 0.00 70 1016.3
20260905214003 78 74 0.9 3.5 0.00 0.00 0.00 72 1016.4
20260905213524 78 41 0.9 3.5 0.00 0.00 0.00 73 1016.4
20260905213003 78 42 1.7 4.3 0.00 0.00 0.00 72 1016.4
20260905212503 77 52 1.7 4.3 0.00 0.00 0.00 72 1016.4
20260905212024 78 76 0.9 3.5 0.00 0.00 0.00 73 1016.5
20260905211503 78 77 0.9 2.6 0.00 0.00 0.00 73 1016.3
20260905211024 77 59 0.9 2.6 0.00 0.00 0.00 74 1016.3
20260905210503 77 48 0.9 2.6 0.00 0.00 0.00 75 1016.3
20260905210003 76 38 1.7 5.2 0.00 0.00 0.00 75 1016.3
20260905205524 76 34 1.7 6.1 0.00 0.00 0.00 76 1016.3
20260905205003 76 42 0.9 6.1 0.00 0.00 0.00 77 1016.3
20260905204503 76 32 0.9 4.3 0.00 0.00 0.00 78 1016.3
20260905204024 76 31 0.9 4.3 0.00 0.00 0.00 79 1016.4
20260905203524 75 49 0.9 3.5 0.00 0.00 0.00 79 1016.4
20260905203024 75 48 0.9 5.2 0.00 0.00 0.00 80 1016.5
20260905202524 74 49 0.9 5.2 0.00 0.00 0.00 81 1016.5
20260905202003 74 54 0.9 6.1 0.00 0.00 0.00 82 1016.5
20260905201524 73 46 0.9 6.1 0.00 0.00 0.00 83 1016.6
20260905201024 73 29 0.9 6.1 0.00 0.00 0.00 85 1016.6
20260905200503 73 16 1.7 6.1 0.00 0.00 0.00 86 1016.6
20260905200003 72 13 0.9 4.3 0.00 0.00 0.00 86 1016.6
20260905195503 72 27 0.9 3.5 0.00 0.00 0.00 87 1016.6
20260905195004 72 44 0.9 1.7 0.00 0.00 0.00 87 1016.6
20260905194503 72 44 0.0 1.7 0.00 0.00 0.00 87 1016.7
20260905194003 72 0 0.0 0.0 0.00 0.00 0.00 87 1016.8
20260905193503 72 44 0.0 0.9 0.00 0.00 0.00 87 1017.0
20260905193003 71 44 0.0 1.7 0.00 0.00 0.00 87 1017.0
20260905192503 71 46 0.9 2.6 0.00 0.00 0.00 87 1017.0
20260905192003 71 49 0.9 2.6 0.00 0.00 0.00 87 1017.1
20260905191503 71 48 0.9 4.3 0.00 0.00 0.00 87 1017.1
20260905191003 71 49 0.9 4.3 0.00 0.00 0.00 87 1017.0
20260905190503 71 36 0.9 4.3 0.00 0.00 0.00 87 1017.1
20260905190003 71 32 0.9 4.3 0.00 0.00 0.00 87 1017.2
20260905185503 71 31 0.9 4.3 0.00 0.00 0.00 87 1017.2
20260905185024 71 28 0.9 3.5 0.00 0.00 0.00 87 1017.3
20260905184503 71 25 1.7 4.3 0.00 0.00 0.00 87 1017.3
20260905184003 71 28 1.7 5.2 0.00 0.00 0.00 87 1017.3
20260905183503 71 32 1.7 5.2 0.00 0.00 0.00 87 1017.4
20260905183003 71 30 0.9 2.6 0.00 0.00 0.00 87 1017.4
20260905182503 71 19 0.9 2.6 0.00 0.00 0.00 87 1017.4
20260905182024 71 20 0.9 3.5 0.00 0.00 0.00 86 1017.4
20260905181503 71 28 0.9 3.5 0.00 0.00 0.00 86 1017.3
20260905181003 71 50 0.9 3.5 0.00 0.00 0.00 86 1017.3
20260905180503 71 89 0.9 5.2 0.00 0.00 0.00 86 1017.3
20260905180003 71 93 0.9 5.2 0.00 0.00 0.00 86 1017.3
20260905175503 71 61 0.9 2.6 0.00 0.00 0.00 86 1017.3
20260905175024 71 80 0.9 2.6 0.00 0.00 0.00 86 1017.2
20260905174503 71 84 0.9 3.5 0.00 0.00 0.00 86 1017.2
20260905174003 71 76 0.9 5.2 0.00 0.00 0.00 86 1017.2
20260905173503 71 89 0.9 5.2 0.00 0.00 0.00 85 1017.1
20260905173003 71 108 0.9 4.3 0.00 0.00 0.00 85 1017.1
20260905172503 71 98 0.9 7.8 0.00 0.00 0.00 85 1017.1
20260905172003 71 75 0.9 7.8 0.00 0.00 0.00 85 1017.1
20260905171503 71 59 0.9 3.5 0.00 0.00 0.00 85 1017.2
20260905171024 71 86 0.9 6.1 0.00 0.00 0.00 85 1017.0
20260905170503 71 73 0.9 6.1 0.00 0.00 0.00 85 1017.1
20260905170003 70 67 0.9 3.5 0.00 0.00 0.00 85 1017.0
20260905165503 70 92 0.9 3.5 0.00 0.00 0.00 85 1017.0
20260905165024 70 95 0.0 3.5 0.00 0.00 0.00 85 1017.1
20260905164503 70 85 0.0 2.6 0.00 0.00 0.00 84 1017.1
20260905164024 70 45 0.9 3.5 0.00 0.00 0.00 84 1017.2
20260905163503 70 42 0.9 3.5 0.00 0.00 0.00 84 1017.2
20260905163003 70 50 0.9 4.3 0.00 0.00 0.00 83 1017.2
20260905162503 70 42 1.7 4.3 0.00 0.00 0.00 83 1017.2
20260905162024 70 55 1.7 6.1 0.00 0.00 0.00 83 1017.1
20260905161524 70 88 0.9 6.1 0.00 0.00 0.00 83 1017.2
20260905161003 70 147 0.0 3.5 0.00 0.01 0.00 83 1017.1
20260905160503 70 140 0.9 3.5 0.00 0.01 0.00 83 1017.1
20260905160003 70 81 0.9 3.5 0.00 0.02 0.00 83 1017.2
20260905155503 70 95 0.9 3.5 0.00 0.02 0.00 83 1017.1
20260905155003 70 86 0.9 4.3 0.00 0.03 0.00 83 1017.0
20260905154524 70 84 0.9 4.3 0.00 0.03 0.00 82 1017.0
20260905154003 70 75 0.9 2.6 0.00 0.04 0.00 83 1017.0
20260905153503 70 49 0.9 4.3 0.00 0.04 0.00 82 1016.9
20260905153003 70 87 0.9 4.3 0.00 0.04 0.00 82 1016.9
20260905152503 70 92 0.9 3.5 0.00 0.04 0.00 82 1017.0
20260905152003 70 49 0.9 3.5 0.00 0.05 0.00 82 1016.9
20260905151503 70 39 0.9 3.5 0.00 0.05 0.00 82 1016.9
20260905151003 71 74 0.9 3.5 0.00 0.05 0.00 82 1016.8
20260905150503 71 103 0.9 5.2 0.00 0.05 0.00 82 1016.9
20260905150003 71 89 0.9 5.2 0.00 0.05 0.00 82 1016.8
20260905145503 70 68 1.7 6.1 0.00 0.05 0.00 82 1016.7
20260905145024 70 78 1.7 6.1 0.00 0.05 0.00 82 1016.6
20260905144503 70 86 1.7 5.2 0.00 0.05 0.00 82 1016.6
20260905144003 70 62 1.7 5.2 0.00 0.05 0.00 82 1016.5
20260905143503 70 47 0.9 5.2 0.00 0.06 0.00 83 1016.4
20260905143003 70 105 0.0 2.6 0.00 0.06 0.00 83 1016.5
20260905142524 70 110 0.9 6.1 0.00 0.06 0.00 84 1016.5
20260905142024 70 93 0.9 6.1 0.00 0.06 0.00 84 1016.5
20260905141503 70 75 1.7 5.2 0.00 0.06 0.00 84 1016.6
20260905141003 70 78 1.7 7.0 0.00 0.06 0.00 85 1016.4
20260905140503 70 89 0.9 7.0 0.00 0.06 0.00 85 1016.3
20260905140003 69 106 0.9 3.5 0.00 0.06 0.00 86 1016.3
20260905135503 69 97 0.9 3.5 0.00 0.06 0.00 86 1016.1
20260905135003 69 89 1.7 5.2 0.00 0.06 0.00 86 1016.1
20260905134503 69 99 1.7 5.2 0.00 0.06 0.00 87 1016.2
20260905134003 69 98 0.9 6.1 0.00 0.06 0.00 87 1016.3
20260905133503 69 84 1.7 6.1 0.00 0.07 0.00 88 1016.3
20260905133003 69 88 1.7 5.2 0.00 0.07 0.00 88 1016.3
20260905132503 69 71 0.9 3.5 0.00 0.07 0.00 88 1016.4
20260905132003 69 53 1.7 6.1 0.00 0.07 0.00 89 1016.2
20260905131524 68 72 1.7 6.1 0.00 0.07 0.00 89 1016.2
20260905131003 69 99 1.7 3.5 0.00 0.08 0.00 89 1016.2
20260905130503 69 83 1.7 3.5 0.00 0.09 0.00 89 1016.1
20260905130003 69 54 0.9 3.5 0.00 0.11 0.00 90 1016.1
20260905125503 69 42 0.9 3.5 0.00 0.15 0.00 90 1016.1
20260905125003 69 37 0.9 5.2 0.00 0.18 0.00 90 1016.1
20260905124503 69 59 1.7 5.2 0.00 0.22 0.00 90 1015.9
20260905124003 69 61 1.7 5.2 0.00 0.25 0.00 90 1015.8
20260905123503 69 69 0.9 5.2 0.00 0.28 0.00 90 1015.7
20260905123003 69 90 0.9 3.5 0.00 0.31 0.00 90 1015.7
20260905122503 69 61 0.9 5.2 0.00 0.33 0.00 91 1015.7
20260905122003 69 75 0.9 5.2 0.00 0.34 0.00 91 1015.6